Tracking 25378 objects as of 22-Jan-2022
HD Live streaming from Space Station
objects crossing your sky now

SSU 1

Track SSU 1 now!
10-day predictions
SSU 1 is classified as:


NORAD ID: 8835
Int'l Code: 1976-038C
Perigee: 560.3 km
Apogee: 1,374.1 km
Inclination: 63.3 °
Period: 104.3 minutes
Semi major axis: 7338 km
RCS: Unknown
Launch date: April 30, 1976
Source: United States (US)
Launch site: AIR FORCE WESTERN TEST RANGE (AFWTR)
aabbcc
Your satellite tracking list
Your tracking list is empty




NASA's NSSDC Master Catalog

Two Line Element Set (TLE):
1 08835U 76038C   22021.31948747 -.00000031  00000-0  29542-4 0  9999
2 08835  63.3412   7.5276 0554481 159.0786 203.3953 13.81086552136582
Source of the keplerian elements: McCants